Wind_Speed
16 16 16 15 14 13 12 11 11 10 8 8 8 9 9 10 11 12 14 15 15 15 14 13 12 12 11 10 9 8 7 7 6 6 5 5 5 5 5 5 5 5 5
15 15 15 14 14 13 11 11 11 10 9 8 8 9 9 10 10 11 12 14 15 15 14 14 14 14 13 12 11 10 9 8 7 7 6 6 6 5 6 6 5 5 5
14 13 14 14 13 12 11 11 11 11 10 9 8 8 9 10 11 11 12 13 13 14 15 15 15 15 14 14 13 12 11 10 9 8 8 7 7 7 6 5 6 5 5
14 13 13 14 13 12 11 11 11 10 10 9 8 8 8 9 10 11 12 13 13 14 14 15 15 15 16 15 14 14 13 12 11 10 10 10 9 9 8 7 7 6 6
14 14 13 13 13 12 12 11 10 10 9 9 9 8 8 10 10 11 12 13 14 15 15 15 15 16 16 16 15 15 14 13 13 13 12 12 11 11 11 10 9 9 8
15 15 14 13 14 13 12 11 10 9 9 9 8 7 7 9 10 11 11 12 13 14 15 15 16 16 16 17 17 17 16 15 14 14 14 14 14 14 13 13 12 12 12
15 15 15 14 14 13 12 11 11 9 9 8 8 7 8 8 9 10 11 12 13 14 15 15 16 16 16 17 18 18 18 16 16 16 16 16 17 16 16 16 15 15 15
15 14 14 13 13 12 11 11 10 10 9 9 9 9 9 9 9 10 10 12 13 14 15 15 16 17 17 18 19 19 18 18 18 18 18 18 18 18 18 18 18 18 18
14 14 14 14 13 12 12 11 10 10 9 9 10 10 11 10 11 11 12 13 14 15 15 16 17 18 18 18 19 20 20 20 21 20 20 20 20 20 20 20 20 20 20
14 14 14 14 13 12 11 11 11 10 10 10 10 10 11 11 11 12 12 13 13 14 16 16 18 19 19 20 19 20 20 20 20 20 21 22 22 21 22 22 22 23 23
15 14 13 13 12 12 11 11 10 10 9 10 10 10 11 11 11 12 13 13 14 14 16 17 18 19 19 20 20 20 20 20 20 21 20 21 21 22 23 23 24 24 25
15 15 14 14 13 13 12 11 11 10 10 10 10 11 11 12 12 13 13 14 14 15 16 17 18 18 19 19 20 21 22 22 21 21 22 22 22 23 24 25 26 27 27
16 16 15 15 14 13 13 12 11 11 11 11 11 12 11 12 13 13 14 15 15 15 16 17 17 18 19 19 20 21 21 22 22 22 23 23 24 24 25 26 27 28 29
18 17 16 16 15 15 14 14 13 12 12 12 12 12 13 13 13 14 14 15 15 15 16 17 18 19 19 19 19 20 20 20 22 23 24 25 25 26 26 27 27 28 29
20 19 17 17 17 16 16 15 14 14 14 14 13 14 14 14 14 14 14 15 16 16 16 16 16 17 17 18 19 19 19 21 22 23 24 26 27 28 28 29 29 29 31
21 20 19 19 19 18 18 18 17 16 16 16 16 15 15 14 14 14 15 16 17 17 18 18 18 18 18 19 20 21 22 22 23 24 25 26 28 28 29 30 30 31 32
22 22 21 20 20 20 20 19 19 18 18 18 17 16 16 16 15 16 16 16 18 18 18 18 18 18 19 20 20 21 23 24 24 25 27 28 28 29 29 30 30 31 32
24 23 22 22 22 22 21 20 20 20 20 19 19 18 17 17 17 18 18 18 19 18 18 18 18 18 19 20 21 22 23 25 26 27 28 29 29 30 31 32 32 32 32
24 24 24 23 23 23 22 22 22 21 21 21 20 19 19 19 19 20 19 19 19 19 19 20 20 21 21 22 23 24 25 26 26 27 28 29 29 30 30 31 31 32 33
25 25 25 24 23 23 23 23 23 23 23 22 22 21 22 22 21 21 21 20 20 20 21 21 22 23 24 24 24 25 26 26 27 28 28 30 31 31 31 31 32 33 34
26 26 26 25 25 24 24 24 24 23 23 24 24 24 24 24 23 23 22 22 22 22 22 23 24 24 25 25 26 26 27 28 28 28 28 30 31 32 32 33 33 35 36
28 27 26 26 26 25 26 25 25 25 25 25 24 24 24 24 24 25 24 24 24 24 24 24 24 24 25 25 25 26 26 27 28 29 30 30 31 32 33 35 36 38 38
30 29 28 27 27 26 26 26 26 25 25 26 25 25 25 25 25 25 25 25 25 25 26 26 26 26 25 25 26 27 27 28 29 30 31 31 32 33 34 35 36 37 38
31 30 29 29 28 27 27 27 26 26 25 25 25 26 26 26 26 25 25 25 25 26 26 26 27 26 26 26 27 27 28 29 30 30 31 31 32 33 34 34 35 37 38
31 30 29 29 28 28 28 27 27 26 26 26 26 26 26 26 26 25 25 25 25 26 26 25 25 26 25 25 26 26 28 28 29 30 31 31 31 31 32 34 35 36 37
31 30 29 29 28 28 27 27 28 28 27 26 25 25 25 25 25 24 24 24 25 25 24 24 25 24 24 24 26 27 28 28 29 29 29 30 30 31 32 33 34 34 35
Wind_Direction
315 315 315 317 319 317 315 313 318 321 312 291 269 253 239 236 232 231 230 232 234 235 239 244 248 249 251 255 257 258 259 261 257 258 260 259 260 265 266 263 265 265 267
314 314 314 313 316 315 311 308 309 312 309 296 276 255 246 242 238 232 228 229 232 233 238 242 247 249 251 252 254 257 258 259 260 260 262 260 261 261 265 267 265 265 269
311 314 312 312 314 313 308 304 303 304 304 294 277 259 249 240 241 235 229 228 232 236 241 247 249 250 249 249 250 253 254 256 257 259 260 258 258 262 262 264 266 266 272
312 315 313 313 314 312 307 303 300 299 299 290 280 265 252 247 241 238 236 234 236 238 238 243 250 250 249 248 248 250 253 254 257 258 258 259 258 259 262 266 269 272 271
311 313 311 313 315 312 307 303 302 297 295 290 286 272 258 248 243 240 240 237 238 239 242 248 249 250 249 247 248 249 252 254 257 259 258 259 259 261 262 265 268 270 270
308 309 310 313 313 310 306 302 302 299 293 293 289 274 260 251 245 240 237 239 240 242 247 251 250 250 250 250 251 253 254 254 256 258 259 260 261 263 264 265 266 269 271
304 307 310 309 311 308 304 301 300 297 291 287 282 279 267 257 249 243 244 246 245 247 250 251 249 250 250 251 254 256 255 255 258 259 260 261 263 263 266 267 268 270 271
301 305 308 310 313 310 305 303 301 297 291 287 281 278 272 264 255 250 249 247 248 251 250 249 248 251 253 254 256 256 255 257 261 263 263 263 264 264 266 269 271 272 272
300 306 307 311 312 312 308 305 300 296 293 291 287 278 273 266 258 254 257 256 255 253 249 251 252 252 255 258 258 257 256 258 261 263 264 264 265 265 267 268 269 272 274
302 303 304 307 310 311 311 311 307 299 294 294 289 280 275 274 263 257 258 259 258 252 251 253 254 254 257 257 257 257 255 258 262 264 266 267 266 267 267 268 270 272 274
300 297 299 306 309 310 311 312 310 308 301 297 293 286 279 277 274 266 262 263 262 259 256 256 257 257 257 257 257 256 255 259 262 264 268 270 268 268 268 269 272 273 275
298 299 301 302 304 306 307 308 307 303 300 301 299 292 285 280 276 270 268 267 265 263 264 261 260 260 259 258 258 257 259 260 263 266 268 270 272 272 272 272 273 275 276
297 299 297 299 299 299 301 304 304 301 297 297 296 297 291 285 282 279 275 270 266 267 267 266 263 263 263 261 261 263 263 264 267 267 269 271 272 274 275 275 276 277 278
291 294 298 297 295 293 295 297 300 297 296 295 294 292 293 292 286 282 278 274 270 270 266 267 267 266 266 265 264 266 266 267 267 267 268 271 273 273 275 277 278 279 280
285 288 290 290 290 289 289 290 294 296 297 296 295 293 291 292 290 285 280 279 276 273 271 271 273 271 270 266 264 266 267 269 269 269 269 270 271 274 276 278 279 281 281
283 283 285 286 287 287 288 287 288 290 293 295 296 295 292 290 292 291 288 283 281 278 274 274 275 272 270 268 266 266 267 269 272 274 273 274 277 276 277 278 280 281 282
281 280 281 283 286 287 288 286 284 286 289 292 294 293 292 289 288 288 289 286 282 281 278 276 274 271 270 270 271 271 269 271 275 276 277 277 279 280 280 281 282 282 283
280 279 280 281 283 285 285 284 283 283 285 287 289 291 290 287 285 287 287 286 284 281 278 276 273 273 272 275 276 275 274 277 279 280 280 280 282 282 282 282 284 285 286
278 278 278 280 282 284 283 282 282 282 282 284 286 287 288 285 286 288 287 285 284 282 278 277 278 278 277 277 278 279 280 282 282 283 283 284 285 285 285 285 286 287 288
277 276 278 280 280 281 281 281 281 281 281 281 282 284 286 285 286 287 286 285 285 284 280 279 279 279 279 280 280 282 283 282 284 285 285 285 286 287 287 287 287 289 290
277 277 277 278 279 279 279 280 280 281 280 280 281 282 284 285 285 285 287 287 286 286 285 284 282 281 281 282 283 284 283 283 284 286 287 288 287 288 290 291 291 291 291
275 276 277 277 278 278 277 278 279 279 280 280 280 281 283 285 284 284 285 286 286 285 286 286 285 284 283 284 285 286 285 286 288 288 289 289 290 292 292 293 294 294 294
274 276 276 276 276 276 277 276 278 280 281 281 279 280 281 281 282 283 284 284 285 285 287 286 285 285 286 286 287 287 288 289 290 291 291 292 294 295 294 294 296 297 298
273 274 274 275 274 275 276 276 277 278 280 281 280 280 281 281 280 280 282 282 284 285 285 285 286 287 289 289 289 287 289 291 291 293 293 295 296 296 297 298 299 300 301
272 272 273 274 275 274 274 274 275 277 278 279 280 280 281 281 280 280 281 282 284 286 287 286 287 289 289 289 289 290 290 292 292 293 295 297 299 300 301 301 301 302 302
270 271 272 273 274 275 275 275 275 276 277 278 278 280 280 279 279 279 281 282 283 285 286 288 286 287 287 288 289 289 291 292 294 296 298 300 301 301 302 303 304 305 306
Height
5877 5876 5874 5872 5870 5869 5867 5867 5865 5865 5863 5863 5863 5864 5865 5866 5868 5871 5872 5875 5877 5879 5881 5883 5885 5886 5888 5889 5889 5890 5891 5891 5891 5892 5892 5892 5892 5892 5892 5892 5892 5892 5892
5875 5874 5872 5870 5869 5867 5866 5865 5865 5864 5863 5862 5862 5862 5863 5865 5867 5868 5870 5872 5874 5877 5879 5881 5883 5884 5886 5887 5888 5888 5889 5890 5890 5890 5891 5891 5892 5891 5891 5891 5891 5891 5891
5873 5872 5870 5869 5867 5866 5865 5864 5863 5863 5862 5861 5861 5861 5861 5863 5865 5866 5869 5871 5872 5874 5877 5878 5880 5882 5883 5885 5886 5886 5887 5888 5888 5889 5890 5890 5890 5890 5890 5890 5890 5890 5890
5871 5870 5869 5867 5866 5865 5864 5863 5862 5861 5860 5860 5859 5859 5860 5861 5862 5864 5866 5868 5870 5872 5874 5876 5877 5879 5881 5882 5883 5884 5885 5886 5886 5887 5887 5888 5888 5889 5889 5889 5889 5889 5889
5869 5868 5867 5866 5865 5863 5862 5861 5861 5860 5859 5858 5857 5857 5858 5859 5860 5862 5864 5866 5868 5870 5871 5873 5874 5876 5878 5879 5880 5881 5882 5883 5884 5884 5885 5886 5886 5886 5887 5887 5887 5887 5887
5868 5867 5865 5865 5864 5862 5861 5860 5859 5858 5858 5857 5856 5856 5856 5857 5858 5860 5861 5863 5865 5867 5868 5870 5871 5872 5874 5876 5877 5878 5879 5880 5881 5881 5882 5883 5883 5884 5884 5884 5885 5885 5885
5866 5865 5864 5863 5862 5861 5859 5858 5857 5857 5856 5856 5855 5855 5855 5856 5857 5858 5859 5860 5862 5864 5866 5867 5868 5869 5870 5872 5874 5875 5876 5877 5878 5878 5879 5880 5880 5881 5881 5881 5881 5882 5882
5865 5863 5862 5861 5860 5859 5858 5856 5855 5855 5854 5854 5854 5854 5854 5854 5855 5856 5857 5858 5860 5861 5862 5863 5864 5866 5867 5868 5870 5871 5872 5873 5874 5875 5875 5876 5876 5877 5878 5878 5878 5878 5878
5863 5861 5860 5859 5858 5857 5856 5855 5854 5853 5853 5852 5852 5852 5852 5852 5852 5854 5855 5855 5857 5858 5859 5860 5861 5862 5863 5864 5865 5867 5868 5869 5870 5871 5871 5872 5872 5872 5873 5873 5873 5874 5874
5861 5860 5859 5858 5857 5856 5855 5854 5853 5852 5851 5851 5850 5850 5850 5850 5850 5851 5852 5852 5853 5854 5856 5857 5858 5859 5859 5860 5861 5862 5864 5865 5865 5866 5867 5867 5868 5868 5868 5868 5868 5868 5869
5859 5858 5857 5857 5856 5854 5854 5853 5852 5851 5850 5849 5849 5848 5848 5848 5848 5848 5849 5850 5850 5851 5852 5853 5853 5854 5855 5856 5857 5857 5859 5860 5861 5861 5862 5862 5863 5863 5863 5863 5863 5863 5863
5857 5856 5855 5855 5854 5853 5852 5851 5850 5849 5849 5848 5847 5846 5846 5845 5845 5845 5845 5846 5847 5847 5848 5849 5850 5850 5850 5851 5852 5853 5854 5855 5856 5856 5857 5857 5857 5858 5858 5858 5858 5857 5856
5855 5854 5853 5852 5852 5851 5850 5850 5849 5848 5847 5846 5845 5845 5844 5843 5843 5842 5842 5843 5843 5844 5844 5845 5846 5846 5846 5847 5848 5848 5849 5850 5851 5851 5852 5852 5852 5852 5852 5851 5851 5850 5850
5853 5851 5850 5850 5850 5849 5848 5848 5847 5846 5845 5844 5843 5843 5842 5841 5840 5840 5840 5840 5840 5841 5841 5842 5842 5842 5842 5843 5843 5844 5844 5845 5845 5845 5846 5846 5846 5846 5845 5845 5844 5844 5843
5850 5849 5848 5848 5847 5847 5846 5846 5845 5844 5843 5842 5841 5840 5839 5838 5838 5837 5837 5837 5837 5838 5838 5838 5838 5838 5838 5838 5839 5839 5840 5840 5840 5840 5840 5840 5840 5839 5839 5838 5837 5836 5835
5846 5846 5845 5845 5844 5843 5843 5842 5842 5841 5840 5839 5838 5837 5836 5835 5835 5834 5834 5834 5834 5834 5834 5834 5834 5834 5834 5834 5834 5835 5835 5835 5834 5834 5834 5833 5833 5832 5831 5831 5830 5829 5827
5842 5841 5841 5841 5840 5839 5839 5838 5838 5837 5836 5836 5835 5833 5833 5832 5832 5831 5831 5830 5830 5830 5829 5829 5830 5830 5830 5829 5829 5830 5829 5829 5829 5828 5828 5827 5826 5825 5824 5823 5821 5820 5819
5837 5837 5836 5836 5835 5835 5834 5834 5834 5833 5833 5832 5831 5830 5829 5828 5828 5828 5827 5826 5826 5825 5825 5825 5825 5825 5825 5825 5825 5824 5824 5823 5823 5822 5821 5820 5818 5817 5816 5815 5813 5812 5810
5832 5831 5831 5831 5831 5830 5829 5829 5829 5828 5828 5828 5827 5826 5825 5825 5824 5823 5822 5822 5821 5821 5820 5820 5820 5820 5820 5820 5819 5819 5818 5817 5816 5815 5814 5812 5811 5809 5808 5807 5805 5803 5801
5826 5826 5826 5826 5825 5825 5824 5824 5824 5823 5823 5823 5822 5821 5821 5820 5820 5819 5818 5817 5817 5816 5815 5815 5815 5814 5814 5813 5813 5812 5811 5810 5809 5808 5807 5805 5803 5801 5800 5798 5796 5794 5792
5820 5820 5820 5820 5820 5820 5819 5818 5818 5818 5817 5817 5817 5816 5815 5815 5814 5813 5813 5812 5812 5811 5810 5809 5809 5808 5808 5807 5806 5805 5805 5803 5802 5801 5799 5797 5796 5793 5791 5789 5787 5785 5782
5814 5814 5814 5814 5814 5813 5813 5812 5812 5812 5811 5811 5810 5810 5809 5809 5808 5808 5807 5807 5806 5805 5805 5803 5803 5802 5801 5800 5799 5798 5797 5796 5795 5793 5791 5789 5787 5785 5783 5780 5778 5775 5772
5807 5807 5807 5807 5807 5807 5806 5806 5806 5805 5804 5804 5804 5803 5803 5803 5802 5801 5801 5801 5800 5799 5798 5797 5796 5795 5795 5794 5793 5791 5790 5788 5787 5785 5783 5781 5779 5776 5774 5771 5768 5764 5761
5800 5800 5800 5800 5800 5800 5799 5799 5799 5798 5798 5797 5797 5797 5796 5796 5795 5795 5794 5794 5793 5792 5791 5790 5789 5788 5788 5786 5785 5784 5782 5781 5779 5777 5774 5772 5770 5767 5764 5761 5758 5754 5751
5792 5792 5793 5793 5793 5793 5792 5792 5791 5791 5791 5791 5790 5790 5789 5789 5788 5788 5788 5787 5786 5786 5785 5784 5783 5782 5780 5779 5778 5776 5775 5773 5771 5769 5766 5764 5761 5758 5755 5752 5748 5744 5740
5785 5785 5785 5785 5785 5785 5785 5784 5784 5784 5784 5784 5783 5783 5782 5782 5781 5781 5781 5780 5779 5779 5778 5777 5776 5774 5773 5772 5771 5769 5767 5765 5763 5761 5758 5756 5753 5750 5747 5743 5739 5735 5731